Location: Boston
(42.3580°N, 71.0600°W)
Time: 07:50:01
(UTC-05:00)

Envisat - Pass Details

Date: 15 October 2017
Orbit: 764 x 766 km, 98.2° (Epoch: 16 December)

Event Time Altitude Azimuth Distance (km) Brightness Sun altitude
Exits shadow 19:43:05 32° 62° (ENE) 1,297 3.7 -19.5°
Drops below altitude 10° 19:47:19 10° 6° (N) 2,314 5.5 -20.2°
Sets 19:49:50 0° 357° (N) 3,245 6.4 -20.7°
